[[{"header":{"parameterUnit":"m.s-1","parameterCategory":1,"la1":30.2991,"la2":30.254,"lo1":-89.0895,"lo2":-89.0444,"dy":0.0017,"dx":0.0017,"nx":28,"ny":28,"refTime":"2025-01-21T09:00:00:Z","depth":0,"parameterNumber":2,"parameterNumberName":"U-component_of_WINDS"},"data":[0,0,0,0,0,0,0,0,0,0,0,0,0,0,0,0,0,0,0,0,0,0,0,0,0,0,0,0,0,0,0,0,0,0,0,0,0,0,0,0,0,0,0,0,0,0,0,0,0,0,0,0,0,0,0,0,0,0,-1.1656,-1.1657,0,-1.1757,-1.1758,-1.1759,-1.1796,-1.1795,-1.1795,-1.1795,-1.1898,-1.1901,-1.1904,0,0,0,0,0,0,0,0,0,0,0,0,0,-1.1493,-1.1496,-1.1655,-1.1657,-1.1658,-1.1757,-1.1758,-1.176,-1.1796,-1.1795,-1.1795,-1.1795,-1.1897,-1.1901,-1.1904,0,0,0,0,0,0,0,0,0,0,0,0,0,-1.1576,-1.1497,-1.1655,-1.1688,-1.1692,-1.1756,-1.1758,-1.176,-1.1796,-1.1795,-1.1795,-1.1794,-1.1896,-1.19,-1.1905,-1.1944,0,0,-1.1919,-1.1921,0,0,0,0,0,0,0,0,-1.1571,-1.1582,-1.1682,-1.1686,-1.169,-1.1763,-1.1739,-1.1822,-1.1796,-1.1756,-1.1795,-1.1794,-1.1853,-1.1862,-1.1882,-1.1949,-1.1953,-1.1919,-1.1922,-1.1924,-1.1925,0,0,0,0,0,0,0,-1.1565,-1.1578,-1.1696,-1.1683,-1.1689,-1.1698,-1.1709,-1.1755,-1.1807,-1.176,-1.1763,-1.1774,-1.1856,-1.1877,-1.1884,-1.1955,-1.1919,-1.1923,-1.1926,-1.1928,-1.2059,-1.2059,0,0,0,0,0,0,-1.1554,-1.1573,-1.1692,-1.1699,-1.1628,-1.1701,-1.1713,-1.174,-1.1806,-1.1816,-1.1775,-1.1776,-1.187,-1.1879,-1.1888,-1.1938,-1.1924,-1.1928,-1.1931,-1.2058,-1.2059,-1.206,0,0,0,0,0,0,-1.1551,-1.1565,-1.1688,-1.1637,-1.1653,-1.1704,-1.1734,-1.1743,-1.1764,-1.1817,-1.1827,-1.1787,-1.1869,-1.1882,-1.193,-1.1942,-1.193,-1.1935,-1.2057,-1.2058,-1.2059,-1.2038,0,0,0,0,0,0,-1.1546,-1.1563,-1.1578,-1.1637,-1.1656,-1.1728,-1.1735,-1.1745,-1.1772,-1.1774,-1.1832,-1.1841,-1.187,-1.1923,-1.1934,-1.1948,-1.1938,-1.2056,-1.2058,-1.2059,-1.2038,-1.2038,-1.2039,0,0,0,0,0,-1.154,-1.1568,-1.1579,-1.1593,-1.1676,-1.1729,-1.174,-1.1773,-1.1773,-1.1789,-1.1823,-1.1839,-1.1939,-1.1927,-1.1941,-1.1956,-1.2056,-1.2057,-1.2059,-1.2038,-1.2038,-1.2039,0,0,0,0,0,0,-1.151,-1.1577,-1.1589,-1.1638,-1.1677,-1.1735,-1.1756,-1.1773,-1.1813,-1.1814,-1.1853,-1.1866,-1.1911,-1.1939,-1.1924,-1.1998,-1.1998,-1.2003,-1.1978,-1.1979,-1.1979,-1.1971,-1.1942,0,0,0,0,0,-1.151,-1.1547,-1.1603,-1.164,-1.166,-1.1704,-1.1729,-1.1751,-1.1794,-1.1811,-1.1848,-1.1889,-1.193,-1.1956,-1.1996,-1.2042,-1.2055,-1.206,-1.206,-1.206,-1.2063,-1.2089,-1.2092,-1.2065,-1.2065,-1.2065,0,0,-1.1508,-1.1549,-1.157,-1.1635,-1.1669,-1.1706,-1.1718,-1.1758,-1.1786,-1.1817,-1.1864,-1.1893,-1.1942,-1.1989,-1.2011,-1.2013,-1.2074,-1.2062,-1.2062,-1.2065,-1.2091,-1.2094,-1.2096,-1.2066,-1.2066,-1.2066,0,0,-1.1525,-1.156,-1.1594,-1.1627,-1.1678,-1.1708,-1.1716,-1.1771,-1.1792,-1.184,-1.1864,-1.1898,-1.1968,-1.2001,-1.2027,-1.2056,-1.2072,-1.2068,-1.207,-1.2095,-1.2097,-1.2099,-1.2109,-1.2112,-1.2071,-1.2071,-1.2071,0,-1.1516,-1.1574,-1.161,-1.1648,-1.1676,-1.1706,-1.1741,-1.1772,-1.1833,-1.1851,-1.1852,-1.194,-1.1974,-1.203,-1.2037,-1.2057,-1.2067,-1.2062,-1.2094,-1.2096,-1.2099,-1.2109,-1.2112,-1.207,-1.207,-1.2071,-1.2071,0,-1.1562,-1.1601,-1.1623,-1.1681,-1.1712,-1.1748,-1.1789,-1.1816,-1.1836,-1.1865,-1.1914,-1.1956,-1.2006,-1.2021,-1.204,-1.2079,-1.2078,-1.2086,-1.2088,-1.21,-1.211,-1.2114,-1.2069,-1.2069,-1.207,-1.207,0,0,-1.1562,-1.1639,-1.1647,-1.1674,-1.1732,-1.1763,-1.1801,-1.1849,-1.1871,-1.1912,-1.1945,-1.2003,-1.2011,-1.204,-1.2064,-1.2086,-1.2106,-1.2091,-1.2093,-1.2092,-1.215,-1.2143,-1.2147,-1.2117,-1.2118,-1.2118,-1.2146,0,-1.1586,-1.1655,-1.1688,-1.1742,-1.1779,-1.1808,-1.1841,-1.188,-1.1908,-1.1944,-1.1976,-1.2016,-1.2023,-1.2041,-1.2064,-1.2098,-1.2118,-1.2097,-1.2147,-1.2148,-1.2134,-1.2153,-1.2146,-1.217,-1.215,-1.2151,-1.2151,0,-1.1623,-1.1664,-1.1722,-1.1775,-1.1792,-1.1821,-1.1868,-1.1902,-1.1947,-1.1966,-1.1999,-1.2022,-1.2062,-1.2061,-1.2118,-1.2103,-1.2125,-1.2145,-1.2147,-1.2153,-1.215,-1.2158,-1.2178,-1.2181,-1.2158,-1.2157,-1.2157,0,-1.1617,-1.1687,-1.173,-1.1752,-1.1816,-1.1835,-1.1863,-1.1907,-1.1934,-1.1975,-1.1993,-1.2038,-1.2063,-1.2098,-1.2132,-1.2128,-1.2185,-1.2187,-1.2202,-1.2201,-1.2212,-1.2211,-1.2235,-1.2227,-1.2227,-1.2227,-1.2227,0,-1.164,-1.1674,-1.1728,-1.1755,-1.1794,-1.1832,-1.187,-1.1899,-1.1938,-1.1971,-1.1999,-1.2029,-1.2073,-1.2109,-1.2137,-1.2179,-1.219,-1.2207,-1.2213,-1.2204,-1.2202,-1.2219,-1.2218,-1.2228,-1.2228,-1.2228,-1.2228,0,-1.1639,-1.1677,-1.1727,-1.1783,-1.1798,-1.1824,-1.1872,-1.1899,-1.1929,-1.197,-1.1982,-1.2029,-1.2073,-1.2111,-1.2168,-1.2187,-1.223,-1.2239,-1.2215,-1.2218,-1.2231,-1.2229,-1.2267,-1.2274,-1.2261,-1.2261,-1.2261,0,-1.1651,-1.1678,-1.1737,-1.1761,-1.1788,-1.1826,-1.1854,-1.1892,-1.192,-1.1973,-1.1993,-1.2039,-1.2078,-1.2146,-1.2185,-1.2229,-1.2239,-1.2249,-1.2246,-1.2235,-1.2238,-1.2236,-1.2239,-1.2249,-1.2249,-1.2249,-1.2249,0,-1.1668,-1.1685,-1.1724,-1.177,-1.1802,-1.1839,-1.1878,-1.1896,-1.1941,-1.1971,-1.2016,-1.2045,-1.2104,-1.2149,-1.2198,-1.2226,-1.2245,-1.2249,-1.2255,-1.2246,-1.223,-1.2238,-1.2214,-1.2248,-1.2248,-1.2248,-1.2248,-1.2248,-1.1674,-1.1699,-1.1745,-1.1787,-1.182,-1.1855,-1.1883,-1.1916,-1.1954,-1.2005,-1.2025,-1.2071,-1.2115,-1.2182,-1.2211,-1.2247,-1.225,-1.2258,-1.226,-1.2262,-1.226,-1.2225,-1.2256,-1.2256,-1.2256,-1.2256,-1.2256,0,-1.1692,-1.1723,-1.1761,-1.1814,-1.1847,-1.1862,-1.1905,-1.1932,-1.1972,-1.2011,-1.2049,-1.21,-1.2144,-1.2186,-1.2232,-1.2253,-1.2263,-1.2264,-1.2262,-1.2268,-1.2255,-1.2245,-1.2255,-1.2255,-1.2255,-1.2255,-1.2255,-1.2255,-1.1705,-1.1748,-1.1771,-1.1831,-1.1861,-1.1906,-1.193,-1.1962,-1.1994,-1.205,-1.2086,-1.2114,-1.2155,-1.2204,-1.2245,-1.2256,-1.2271,-1.227,-1.2283,-1.227,-1.2269,-1.2269,-1.226,-1.2273,-1.2273,-1.2294,-1.2294,-1.2295]},{"header":{"parameterUnit":"m.s-1","parameterCategory":1,"la1":30.2991,"la2":30.254,"lo1":-89.0895,"lo2":-89.0444,"dy":0.0017,"dx":0.0017,"nx":28,"ny":28,"refTime":"2025-01-21T09:00:00:Z","depth":0,"parameterNumber":3,"parameterNumberName":"V-component_of_WINDS"},"data":[0,0,0,0,0,0,0,0,0,0,0,0,0,0,0,0,0,0,0,0,0,0,0,0,0,0,0,0,0,0,0,0,0,0,0,0,0,0,0,0,0,0,0,0,0,0,0,0,0,0,0,0,0,0,0,0,0,0,-0.9638,-0.9638,0,-0.9673,-0.9673,-0.9674,-0.9702,-0.9702,-0.9703,-0.9703,-0.9741,-0.9742,-0.9742,0,0,0,0,0,0,0,0,0,0,0,0,0,-0.9597,-0.9598,-0.9638,-0.9638,-0.9639,-0.9673,-0.9673,-0.9674,-0.9702,-0.9703,-0.9703,-0.9703,-0.9741,-0.9741,-0.9742,0,0,0,0,0,0,0,0,0,0,0,0,0,-0.9622,-0.9598,-0.9638,-0.9657,-0.9659,-0.9673,-0.9673,-0.9674,-0.9702,-0.9703,-0.9703,-0.9703,-0.974,-0.9741,-0.9742,-0.974,0,0,-0.9746,-0.9746,0,0,0,0,0,0,0,0,-0.962,-0.9623,-0.9654,-0.9656,-0.9658,-0.9684,-0.9673,-0.9696,-0.9702,-0.9686,-0.9703,-0.9704,-0.9722,-0.9724,-0.973,-0.9742,-0.9744,-0.9746,-0.9747,-0.9747,-0.9747,0,0,0,0,0,0,0,-0.9618,-0.9622,-0.9652,-0.9654,-0.9657,-0.9664,-0.9668,-0.9677,-0.9701,-0.9687,-0.9689,-0.9693,-0.9723,-0.9729,-0.9731,-0.9744,-0.9746,-0.9747,-0.9747,-0.9748,-0.9756,-0.9756,0,0,0,0,0,0,-0.9614,-0.962,-0.9651,-0.9653,-0.964,-0.9665,-0.9669,-0.9675,-0.9701,-0.9705,-0.9693,-0.9694,-0.9727,-0.973,-0.9732,-0.9731,-0.9747,-0.9748,-0.9749,-0.9757,-0.9756,-0.9756,0,0,0,0,0,0,-0.9613,-0.9616,-0.9649,-0.9637,-0.9642,-0.9665,-0.9671,-0.9675,-0.9681,-0.9705,-0.9709,-0.9694,-0.9727,-0.9731,-0.9738,-0.9733,-0.9749,-0.975,-0.9757,-0.9757,-0.9756,-0.9729,0,0,0,0,0,0,-0.9611,-0.9616,-0.9615,-0.9637,-0.9642,-0.9654,-0.9671,-0.9676,-0.9683,-0.9685,-0.9708,-0.9712,-0.9728,-0.9736,-0.9739,-0.9735,-0.975,-0.9758,-0.9757,-0.9756,-0.9731,-0.9728,-0.9725,0,0,0,0,0,-0.961,-0.9606,-0.9614,-0.9618,-0.9642,-0.9653,-0.9657,-0.9675,-0.9682,-0.9682,-0.9697,-0.9711,-0.9733,-0.9737,-0.974,-0.9736,-0.9758,-0.9757,-0.9756,-0.9732,-0.9728,-0.9725,0,0,0,0,0,0,-0.9584,-0.961,-0.9619,-0.9622,-0.9635,-0.9658,-0.9658,-0.967,-0.9682,-0.9684,-0.9706,-0.9711,-0.9715,-0.9727,-0.973,-0.9735,-0.9748,-0.9747,-0.9728,-0.9725,-0.9722,-0.9719,-0.9751,0,0,0,0,0,-0.9578,-0.9585,-0.9607,-0.9608,-0.9614,-0.9635,-0.9641,-0.9653,-0.9668,-0.9674,-0.9689,-0.9703,-0.9714,-0.972,-0.9731,-0.9733,-0.9738,-0.9732,-0.9729,-0.9727,-0.9726,-0.9727,-0.9725,-0.9753,-0.9753,-0.9753,0,0,-0.9567,-0.9582,-0.9585,-0.9603,-0.9615,-0.9622,-0.9639,-0.9646,-0.9651,-0.9675,-0.9682,-0.9694,-0.9712,-0.9716,-0.9719,-0.9725,-0.9719,-0.9725,-0.9723,-0.9724,-0.9726,-0.9723,-0.9721,-0.9752,-0.9752,-0.9752,0,0,-0.9551,-0.9563,-0.9564,-0.9575,-0.9592,-0.9606,-0.9606,-0.9627,-0.9635,-0.9643,-0.9661,-0.9668,-0.9685,-0.9696,-0.9704,-0.9691,-0.9704,-0.9694,-0.968,-0.9681,-0.9679,-0.9677,-0.9672,-0.967,-0.9693,-0.9693,-0.9693,0,-0.9535,-0.9545,-0.9564,-0.9569,-0.9576,-0.9597,-0.9599,-0.9609,-0.9629,-0.9634,-0.9641,-0.9662,-0.9676,-0.9683,-0.9679,-0.9685,-0.9686,-0.9691,-0.9677,-0.9676,-0.9674,-0.967,-0.9668,-0.9692,-0.9692,-0.9692,-0.9692,0,-0.9525,-0.9532,-0.9531,-0.9548,-0.9556,-0.956,-0.9579,-0.9584,-0.9596,-0.9609,-0.9617,-0.9633,-0.9647,-0.965,-0.9662,-0.9659,-0.9662,-0.9673,-0.9686,-0.967,-0.9666,-0.9664,-0.969,-0.969,-0.9691,-0.9691,0,0,-0.9493,-0.952,-0.9519,-0.9527,-0.9547,-0.9553,-0.9558,-0.9571,-0.9574,-0.9588,-0.9592,-0.9606,-0.9615,-0.9625,-0.9638,-0.9639,-0.9627,-0.965,-0.9651,-0.9645,-0.9624,-0.9615,-0.9612,-0.9636,-0.9636,-0.9636,-0.9622,0,-0.9479,-0.9487,-0.9504,-0.9507,-0.9513,-0.9533,-0.9537,-0.955,-0.9562,-0.957,-0.9584,-0.9593,-0.9606,-0.9611,-0.9613,-0.9628,-0.9623,-0.9629,-0.964,-0.9641,-0.9635,-0.9611,-0.9601,-0.9588,-0.9621,-0.962,-0.962,0,-0.9463,-0.9474,-0.9477,-0.9496,-0.95,-0.9503,-0.9516,-0.9523,-0.9538,-0.9547,-0.9556,-0.9571,-0.9577,-0.9589,-0.9598,-0.9602,-0.9607,-0.9615,-0.9615,-0.9617,-0.9629,-0.9611,-0.9584,-0.9581,-0.9618,-0.9618,-0.9618,0,-0.9439,-0.9454,-0.9458,-0.9464,-0.9487,-0.9488,-0.9498,-0.9513,-0.952,-0.9531,-0.9536,-0.9548,-0.9555,-0.9564,-0.9582,-0.9589,-0.9589,-0.9602,-0.9597,-0.9596,-0.9595,-0.9595,-0.9568,-0.96,-0.96,-0.96,-0.96,0,-0.9421,-0.9422,-0.9447,-0.9449,-0.9451,-0.9471,-0.9472,-0.9484,-0.9497,-0.9503,-0.9521,-0.9526,-0.9549,-0.9557,-0.9571,-0.9576,-0.9579,-0.9586,-0.959,-0.9584,-0.9583,-0.9588,-0.9589,-0.9599,-0.9599,-0.9599,-0.96,0,-0.9393,-0.941,-0.9416,-0.9436,-0.9441,-0.9442,-0.9459,-0.9463,-0.9476,-0.9482,-0.9485,-0.9506,-0.9515,-0.9534,-0.955,-0.9559,-0.9561,-0.9567,-0.9555,-0.9557,-0.955,-0.955,-0.9525,-0.9523,-0.9556,-0.9556,-0.9555,0,-0.9381,-0.9382,-0.9402,-0.9406,-0.9415,-0.9422,-0.9428,-0.9448,-0.9454,-0.9471,-0.9472,-0.9483,-0.9492,-0.9507,-0.9524,-0.9536,-0.9543,-0.9533,-0.9545,-0.9539,-0.9542,-0.9541,-0.9541,-0.953,-0.953,-0.953,-0.9529,0,-0.9356,-0.9364,-0.9372,-0.9383,-0.939,-0.94,-0.941,-0.9413,-0.9435,-0.9441,-0.9451,-0.9458,-0.9473,-0.9484,-0.9498,-0.9509,-0.9522,-0.9525,-0.9525,-0.9519,-0.9511,-0.9514,-0.9547,-0.9526,-0.9526,-0.9526,-0.9527,-0.9527,-0.9335,-0.9337,-0.9351,-0.9359,-0.9369,-0.9379,-0.9383,-0.9396,-0.9404,-0.9417,-0.9428,-0.9437,-0.9452,-0.9472,-0.9482,-0.9489,-0.9496,-0.9495,-0.9494,-0.9494,-0.9491,-0.951,-0.9492,-0.9492,-0.9492,-0.9492,-0.9492,0,-0.9311,-0.9321,-0.9328,-0.9342,-0.9349,-0.9361,-0.9373,-0.9378,-0.9385,-0.9397,-0.9406,-0.9417,-0.9427,-0.9445,-0.9457,-0.9459,-0.9466,-0.9462,-0.9462,-0.9464,-0.9485,-0.9484,-0.9456,-0.9456,-0.9456,-0.9456,-0.9456,-0.9456,-0.9299,-0.9302,-0.9312,-0.932,-0.9331,-0.9338,-0.9344,-0.9353,-0.9363,-0.9374,-0.9382,-0.9393,-0.9408,-0.9421,-0.9431,-0.9436,-0.9439,-0.9433,-0.944,-0.9459,-0.9462,-0.9465,-0.9465,-0.9434,-0.9434,-0.9418,-0.9418,-0.9418]}]]